Location: ASU Dark Sky Observatory
(36.2504°N, 81.4125°W)
Time: 21:44:29
(UTC-04:00)

ETS-7 - Visible Passes

Search period start: 18 September 2014 00:00
Search period end: 28 September 2014 00:00
Orbit: 410 x 414 km, 35.0° (Epoch: 17 September)

Date Brightness Start Highest point End Pass type
(mag) Time Alt. Az. Time Alt. Az. Time Alt. Az.
18 Sep 4.9 05:20:53 12° SSE 05:20:53 12° SSE 05:22:12 10° SE visible
19 Sep 3.5 06:05:10 19° SSW 06:06:58 32° SSE 06:10:01 10° E visible
20 Sep 4.3 05:16:35 22° SE 05:16:35 22° SE 05:18:30 10° E visible
21 Sep 2.6 06:00:41 32° SW 06:01:57 54° S 06:05:14 10° E visible
22 Sep 4.2 05:11:57 27° ESE 05:11:57 27° ESE 05:13:45 10° E visible
22 Sep 2.3 06:44:58 10° W 06:48:18 72° S 06:51:38 10° E visible
23 Sep 2.2 05:55:56 44° WSW 05:56:48 71° S 06:00:08 10° E visible
24 Sep 4.5 05:07:07 24° E 05:07:07 24° E 05:08:36 10° E visible
24 Sep 2.4 06:39:52 11° W 06:43:05 59° S 06:46:23 10° ESE visible
25 Sep 2.2 05:51:02 57° SW 05:51:30 67° S 05:54:49 10° ESE visible
26 Sep 4.9 05:02:13 18° E 05:02:13 18° E 05:03:12 10° E visible
26 Sep 3.0 06:34:58 13° W 06:37:36 37° SSW 06:40:42 10° SE visible
27 Sep 2.7 05:46:09 45° S 05:46:09 45° S 05:49:10 10° ESE visible
